Temperature
15 14 14 14 14 13 14 14 13 13 13 13 13 13 12 11 10 10 10 10 10 10 10 10 9 9 9 9 10 10 10 10 10 10 11 11 11 11 11 11 11 11 11
15 15 14 14 14 14 13 13 13 13 13 13 12 12 12 11 10 10 9 10 10 10 9 9 9 9 9 9 9 9 9 10 10 10 10 10 10 10 10 10 10 10 10
15 15 15 14 14 14 13 13 13 13 12 12 12 12 12 11 11 10 9 9 9 9 9 9 9 9 9 9 9 9 9 9 9 9 9 9 9 9 9 9 9 9 9
15 15 15 14 14 14 13 13 13 12 12 12 12 12 12 11 11 10 10 9 9 9 9 9 9 9 8 8 8 8 8 8 8 8 8 8 8 8 8 8 8 8 8
15 15 14 14 14 14 13 13 12 12 12 12 11 11 11 11 11 10 10 9 9 9 8 9 8 8 8 8 8 8 8 8 7 7 7 7 7 7 7 6 6 6 6
16 15 15 14 14 14 13 13 12 12 12 11 11 11 11 11 11 10 10 9 9 9 9 8 8 8 8 8 7 7 7 7 7 7 6 6 6 5 5 5 5 5 5
16 16 15 15 14 14 13 13 12 12 11 11 11 10 10 10 10 10 10 9 9 9 9 9 8 8 8 7 7 7 7 6 6 6 6 5 5 4 4 3 3 3 3
17 16 16 15 15 14 14 13 12 12 12 11 10 10 9 9 10 10 10 10 9 9 9 9 8 8 7 7 7 6 6 6 6 6 5 4 4 3 3 3 3 3 3
17 16 16 15 15 15 14 14 13 12 12 11 11 10 10 10 10 11 11 10 9 9 9 9 8 8 7 7 6 6 6 6 5 5 4 4 3 3 2 2 2 2 2
16 16 15 15 14 15 14 14 13 13 12 12 11 11 11 11 11 10 10 10 10 9 9 9 8 8 7 6 6 6 5 5 5 4 4 3 3 2 2 2 2 2 2
15 15 14 14 14 14 14 14 14 13 12 12 12 11 11 10 11 11 10 10 10 9 9 8 8 7 7 6 5 5 5 4 4 4 3 2 2 1 1 1 1 1 1
14 14 14 13 13 13 14 14 14 13 13 12 12 12 11 11 11 10 10 10 10 10 9 8 7 7 6 5 5 5 4 4 4 3 3 2 2 1 1 1 0 0 0
12 13 13 13 13 13 13 12 12 13 12 12 11 12 11 11 11 11 10 10 9 9 9 8 7 6 5 4 4 4 4 3 3 3 3 2 2 2 1 1 0 -0 -1
12 12 12 12 12 12 11 11 11 11 11 11 11 10 10 10 10 10 10 9 9 7 7 6 6 5 4 4 3 3 2 2 2 2 2 2 2 2 1 1 0 -0 -1
12 12 12 12 11 11 10 10 10 10 10 10 10 10 10 10 9 8 8 8 8 7 5 4 4 4 3 3 2 2 1 1 1 1 1 1 1 1 1 0 -0 -1 -1
12 12 11 11 11 10 9 9 9 9 9 9 10 9 9 8 8 7 7 7 6 6 4 4 3 3 2 2 1 1 0 0 0 0 0 0 -0 -0 -1 -1 -2 -2 -2
11 11 11 10 10 9 9 9 9 9 9 9 9 9 8 7 6 6 5 5 5 4 4 3 2 2 1 0 0 -0 -0 -1 -1 -1 -1 -1 -1 -2 -2 -2 -3 -3 -3
10 10 10 9 9 8 8 8 9 9 8 8 8 7 6 5 4 4 4 4 3 3 3 2 1 1 0 -0 -1 -1 -1 -1 -1 -1 -2 -2 -2 -2 -3 -3 -4 -4 -4
9 9 9 8 8 8 8 8 8 8 7 7 6 5 4 3 3 3 3 2 2 2 1 1 0 -1 -1 -1 -2 -2 -2 -2 -2 -2 -2 -3 -3 -3 -3 -4 -4 -4 -4
8 7 7 7 7 7 7 7 6 6 5 4 3 2 2 2 2 2 2 1 1 1 -0 -1 -2 -2 -3 -3 -3 -4 -4 -4 -4 -3 -3 -3 -3 -3 -4 -4 -4 -4 -4
6 6 6 6 5 5 5 5 4 4 3 2 1 1 1 1 1 1 1 0 -0 -1 -2 -3 -3 -4 -4 -5 -5 -6 -6 -6 -5 -5 -4 -4 -4 -4 -4 -4 -4 -4 -4
4 4 4 3 3 3 2 2 2 1 1 1 1 1 1 1 0 -0 -0 -1 -1 -2 -3 -4 -4 -5 -6 -6 -7 -7 -7 -7 -7 -6 -7 -6 -6 -5 -4 -4 -4 -4 -4
2 2 1 1 1 0 0 -0 -0 0 0 0 0 0 -0 -1 -1 -1 -2 -2 -2 -3 -4 -5 -6 -6 -6 -7 -7 -7 -8 -8 -8 -7 -8 -7 -6 -6 -5 -4 -4 -4 -4
0 0 -0 -0 -1 -1 -1 -0 -0 -0 -0 -0 -1 -1 -2 -2 -2 -2 -2 -3 -3 -4 -5 -6 -6 -7 -7 -7 -8 -8 -8 -8 -8 -7 -8 -8 -6 -6 -5 -5 -4 -4 -4
-1 -1 -1 -1 -1 -1 -1 -1 -1 -1 -1 -1 -2 -2 -2 -3 -3 -3 -4 -4 -5 -6 -6 -6 -6 -7 -7 -7 -8 -8 -8 -8 -8 -7 -7 -8 -7 -7 -6 -5 -4 -4 -4
-1 -1 -1 -1 -1 -1 -2 -2 -2 -2 -2 -2 -3 -3 -3 -4 -4 -5 -6 -6 -6 -6 -7 -6 -7 -7 -7 -7 -7 -8 -8 -8 -8 -8 -7 -8 -7 -8 -8 -5 -5 -5 -5
Wind_Speed
10 10 9 10 10 9 9 8 8 7 6 6 5 6 6 6 7 7 9 11 11 9 8 7 7 7 7 7 8 8 8 8 8 9 9 9 9 10 10 10 10 11 10
11 10 10 10 11 11 10 9 9 7 6 6 6 6 6 7 7 8 8 10 10 10 8 7 7 6 6 6 6 6 6 6 7 7 7 8 8 8 9 9 9 9 10
14 12 10 10 11 12 11 9 9 7 6 6 6 7 7 7 8 8 8 8 9 9 9 8 7 6 6 5 5 5 5 5 5 5 5 6 6 6 7 8 8 9 9
17 14 11 11 13 12 11 9 8 7 7 7 6 6 7 7 9 9 9 9 8 9 9 8 7 6 5 4 4 3 3 3 3 4 4 4 5 6 6 7 8 8 9
19 16 12 12 14 12 10 9 9 9 8 8 7 6 6 7 8 9 10 10 9 9 9 9 8 6 4 3 2 2 2 3 3 4 4 5 6 7 7 8 9 9 10
20 18 13 14 14 11 11 11 11 9 8 7 7 6 6 7 7 9 10 10 10 11 10 10 9 7 5 2 0 2 4 5 5 6 6 7 8 9 10 10 11 11 12
19 18 13 14 14 13 14 15 12 12 8 8 6 5 6 7 9 8 9 10 11 12 11 11 9 8 6 4 1 2 4 5 6 7 8 9 10 11 12 13 14 14 15
19 17 18 15 15 14 16 17 14 10 8 10 8 5 6 7 9 10 10 10 11 12 12 12 10 9 7 5 2 0 2 5 7 8 9 11 12 13 15 16 17 17 17
20 18 18 17 16 16 15 18 18 16 11 11 11 8 6 8 6 8 12 11 11 10 10 11 11 9 8 5 4 2 1 3 6 9 11 12 14 16 17 18 19 19 20
18 19 18 17 16 15 17 18 18 16 15 12 10 9 7 3 5 6 7 10 12 11 11 9 10 9 8 6 4 3 2 3 6 9 12 14 16 18 19 20 21 21 21
16 17 17 16 16 16 18 18 18 19 16 15 11 8 8 5 6 5 5 7 8 9 9 9 9 9 9 7 6 4 1 3 7 11 14 17 19 20 21 22 22 22 22
13 17 16 16 16 15 18 18 18 20 18 17 14 11 9 7 9 8 7 4 6 6 8 7 7 8 8 8 6 4 1 4 8 12 16 18 20 21 21 22 22 23 23
12 15 15 16 15 15 15 15 15 17 18 17 15 12 10 9 5 7 6 4 4 3 5 6 6 7 8 8 7 4 3 5 10 14 17 19 20 21 22 22 23 23 24
12 13 15 15 15 14 13 12 11 13 13 14 13 11 7 5 4 4 5 6 5 3 4 5 4 6 7 7 5 4 6 8 11 15 18 19 20 21 22 23 23 24 24
10 11 12 13 13 12 12 11 10 11 10 10 9 8 6 5 4 3 4 3 6 5 4 4 3 4 5 6 5 7 9 10 14 17 19 20 20 21 22 23 24 24 25
9 9 10 11 11 11 11 10 8 9 10 8 7 10 8 7 6 5 6 5 4 4 3 3 2 3 4 5 7 9 11 13 16 17 18 20 21 22 23 24 24 25 25
7 7 8 9 10 10 11 11 10 11 11 10 10 11 11 10 8 7 6 6 6 4 3 2 2 2 3 6 8 9 11 12 13 17 19 21 22 23 23 24 24 24 25
4 4 5 6 7 9 10 11 11 12 12 13 12 13 12 10 10 8 7 6 5 4 3 3 3 4 6 6 8 9 11 12 14 17 20 22 22 23 23 23 23 24 24
1 1 3 4 6 8 9 9 10 11 11 12 12 13 12 12 10 7 7 6 5 4 2 2 3 4 5 6 8 9 10 11 13 15 18 20 21 21 21 22 23 24 25
6 5 5 5 6 7 9 10 11 12 12 12 11 11 10 10 9 8 6 6 4 4 3 4 5 5 6 7 7 8 9 9 10 13 16 18 19 20 22 24 25 26 27
9 8 9 9 9 8 9 11 12 13 13 13 11 10 9 9 9 7 5 5 5 4 4 4 5 6 7 6 7 7 10 10 11 11 10 10 12 14 18 21 23 24 25
11 11 11 10 10 9 15 16 14 12 12 12 11 9 8 7 7 7 6 6 6 5 5 5 6 7 8 8 7 8 10 11 10 6 10 12 12 15 16 18 22 24 26
12 12 11 11 12 14 18 18 17 12 11 10 9 8 6 5 5 3 2 3 5 6 7 7 9 9 9 8 9 11 11 12 13 12 13 16 14 15 15 19 24 26 27
10 10 11 11 12 14 19 19 18 12 10 9 7 6 6 4 3 2 2 3 4 5 6 7 8 9 9 9 10 11 12 13 14 13 13 14 14 14 14 17 22 25 27
10 10 10 11 12 13 16 16 13 8 8 7 6 4 3 2 1 3 3 4 5 6 6 9 11 13 15 16 14 10 10 10 12 12 10 9 11 13 14 14 17 21 22
10 10 10 10 10 10 12 11 9 5 6 5 4 3 1 1 2 4 4 5 6 7 7 8 9 10 11 12 12 10 9 9 8 7 6 6 9 9 8 9 10 12 16
Wind_Direction
205 203 206 201 203 200 196 200 200 191 189 184 185 187 183 180 173 161 142 131 131 133 131 126 117 107 98 88 78 70 63 58 55 52 49 46 42 38 36 34 30 28 25
210 206 208 206 206 204 204 203 204 195 193 190 189 192 190 183 182 176 159 143 134 138 142 138 127 115 104 92 80 70 61 53 48 45 41 38 35 30 27 25 21 17 13
214 210 211 207 207 205 203 205 200 198 192 189 192 192 193 192 187 182 176 168 156 146 150 149 139 125 109 95 83 72 59 45 37 32 27 23 19 14 11 10 8 3 359
216 214 213 210 206 201 199 198 195 194 192 194 193 189 193 193 196 190 184 181 175 167 160 154 149 136 120 98 77 62 51 34 15 2 357 352 348 346 344 345 346 345 343
215 214 215 211 204 201 201 199 200 200 198 195 192 189 195 195 196 196 196 189 185 183 175 155 148 137 132 113 58 14 358 343 330 324 319 317 318 319 319 321 323 324 325
216 214 214 212 203 201 202 201 199 199 200 186 180 189 199 202 203 203 202 195 190 191 192 182 177 163 153 153 279 324 319 312 307 303 303 303 303 304 304 306 308 309 310
218 214 213 210 204 206 204 203 197 193 189 174 171 191 206 215 216 209 207 203 199 197 198 197 201 197 189 177 197 309 312 307 305 301 300 299 299 298 299 300 300 301 302
221 216 215 211 207 208 206 203 195 194 186 185 188 188 207 209 218 215 210 211 207 201 205 204 204 204 208 213 174 294 323 317 312 306 303 301 301 300 299 298 297 297 297
222 218 220 217 210 208 207 204 199 195 192 195 201 196 200 214 191 197 212 211 210 207 207 204 203 201 202 206 202 162 38 338 318 310 306 305 303 301 298 296 295 295 295
223 220 221 221 215 213 211 206 204 205 199 195 204 225 239 227 186 183 198 211 212 213 208 199 197 192 192 189 169 124 76 342 319 314 310 307 304 301 298 296 295 294 294
223 219 219 220 219 217 218 211 206 207 206 202 195 195 209 220 227 205 189 188 202 211 207 199 191 184 180 178 177 145 86 334 320 314 310 306 303 300 298 297 295 295 294
228 221 217 218 219 219 222 218 211 211 210 210 203 196 193 194 205 212 209 179 184 183 190 191 191 181 175 175 167 142 151 315 313 310 307 305 302 300 299 297 296 294 292
234 225 218 220 220 221 223 222 216 215 215 214 209 208 209 209 190 199 198 163 155 150 179 191 191 180 175 178 175 170 240 296 306 307 305 303 302 302 299 296 293 291 290
242 233 223 223 221 220 220 218 217 216 215 216 214 207 201 188 172 171 165 153 149 157 177 171 167 180 181 190 192 242 273 287 300 303 302 301 301 299 296 294 291 290 289
251 239 226 220 219 215 211 207 210 208 204 204 198 182 164 146 134 123 124 143 155 164 171 157 167 176 190 210 230 271 283 288 295 297 297 297 296 295 293 291 289 288 287
250 240 228 219 213 206 199 195 194 190 185 179 164 158 145 135 121 111 106 92 90 122 143 155 163 153 190 231 257 275 282 288 288 289 291 292 292 291 289 287 285 284 283
250 238 226 215 204 195 188 185 181 173 168 159 155 150 141 135 125 114 105 99 94 99 137 150 177 193 227 251 266 273 279 284 285 286 288 291 290 288 286 285 283 282 281
258 237 212 195 188 181 177 176 170 165 161 156 150 142 138 132 122 119 113 111 115 115 142 177 199 211 237 257 273 279 283 283 283 286 289 290 288 287 286 284 282 281 280
35 95 148 161 163 161 160 159 154 149 146 142 140 138 135 130 124 124 123 127 130 136 152 192 231 232 249 262 276 281 282 283 285 286 288 288 288 287 285 283 282 282 282
63 75 90 103 118 126 129 130 131 128 124 120 119 122 124 126 131 134 134 138 143 156 184 218 244 255 261 268 273 284 290 292 292 293 289 287 286 286 284 282 282 281 280
69 76 84 88 94 101 113 118 119 119 116 111 106 104 106 117 131 136 141 153 166 187 210 232 249 260 265 272 278 289 292 298 296 293 290 289 290 287 286 283 280 277 277
74 78 82 87 88 96 111 113 113 109 109 109 107 102 105 111 129 138 153 177 196 215 229 241 255 263 274 282 290 291 294 297 299 296 296 294 293 289 286 283 281 281 281
76 78 82 88 94 103 106 105 102 100 98 100 104 110 115 122 120 131 160 212 232 247 253 261 267 273 283 289 292 290 287 286 285 289 295 290 289 286 285 282 282 282 283
75 77 78 83 88 94 97 98 97 93 95 99 105 116 124 131 142 178 213 234 248 252 260 266 272 279 283 285 282 281 286 287 285 283 280 282 286 286 288 285 284 283 282
72 73 75 81 85 89 93 98 98 99 103 107 114 120 125 137 187 252 253 259 272 273 264 270 279 282 284 284 284 284 281 281 285 288 285 278 285 293 291 286 282 280 279
76 77 78 81 91 97 100 103 106 109 115 120 124 125 116 317 287 285 281 278 284 293 297 291 285 282 281 279 275 264 263 266 274 285 278 273 287 303 298 283 283 286 285
Height
1550 1551 1552 1553 1554 1555 1556 1557 1557 1558 1558 1558 1558 1558 1558 1558 1558 1558 1557 1556 1556 1556 1556 1555 1555 1555 1555 1554 1554 1553 1553 1552 1552 1551 1550 1550 1549 1549 1548 1547 1547 1547 1546
1546 1547 1549 1549 1551 1552 1553 1554 1555 1555 1555 1555 1555 1556 1556 1556 1556 1556 1556 1554 1554 1554 1554 1554 1554 1554 1554 1554 1553 1553 1552 1551 1551 1550 1549 1548 1548 1547 1547 1546 1545 1545 1544
1542 1543 1544 1545 1547 1548 1549 1550 1551 1552 1552 1553 1553 1553 1553 1553 1553 1553 1553 1553 1552 1552 1553 1553 1553 1553 1553 1553 1552 1552 1551 1550 1549 1549 1548 1547 1546 1546 1545 1544 1543 1543 1542
1538 1539 1540 1540 1542 1543 1545 1546 1547 1548 1549 1550 1550 1550 1550 1550 1550 1551 1550 1550 1551 1551 1550 1551 1551 1551 1551 1551 1551 1550 1549 1549 1548 1547 1546 1545 1544 1544 1543 1542 1541 1540 1539
1532 1534 1534 1536 1537 1538 1539 1541 1542 1544 1545 1546 1546 1547 1547 1547 1547 1547 1547 1547 1548 1548 1548 1548 1549 1549 1549 1549 1549 1548 1548 1547 1546 1545 1544 1543 1542 1542 1541 1540 1539 1538 1537
1527 1528 1529 1530 1531 1533 1534 1535 1537 1539 1540 1542 1542 1543 1543 1543 1543 1543 1544 1544 1544 1545 1545 1546 1546 1546 1547 1547 1547 1547 1546 1545 1544 1543 1542 1541 1540 1539 1538 1537 1536 1535 1534
1520 1521 1523 1524 1525 1526 1528 1530 1532 1533 1535 1536 1538 1538 1538 1538 1538 1539 1539 1540 1540 1541 1542 1542 1543 1543 1544 1544 1544 1544 1543 1542 1541 1540 1539 1538 1537 1536 1536 1535 1534 1532 1531
1513 1514 1516 1517 1518 1520 1521 1523 1524 1526 1528 1530 1532 1534 1534 1534 1532 1533 1534 1535 1536 1536 1537 1538 1539 1539 1540 1540 1540 1540 1539 1539 1538 1537 1536 1535 1534 1533 1532 1531 1530 1529 1527
1505 1506 1508 1509 1510 1512 1513 1515 1517 1519 1521 1523 1526 1528 1529 1528 1527 1527 1527 1529 1530 1531 1533 1533 1534 1535 1535 1536 1536 1535 1535 1535 1534 1533 1532 1531 1529 1528 1527 1526 1525 1524 1522
1496 1498 1499 1501 1502 1504 1506 1508 1509 1512 1514 1515 1517 1519 1521 1522 1523 1522 1522 1523 1525 1526 1527 1528 1529 1529 1530 1530 1531 1530 1530 1529 1529 1527 1526 1525 1524 1523 1522 1520 1519 1518 1516
1488 1489 1491 1493 1494 1496 1498 1500 1501 1503 1505 1507 1509 1511 1513 1515 1516 1518 1518 1518 1519 1520 1521 1522 1523 1523 1524 1525 1525 1524 1524 1524 1523 1522 1520 1519 1518 1516 1515 1513 1512 1510 1509
1481 1481 1482 1484 1485 1487 1489 1491 1493 1495 1497 1499 1500 1502 1505 1506 1507 1510 1512 1512 1513 1514 1515 1516 1517 1517 1518 1518 1518 1518 1518 1517 1517 1515 1514 1512 1511 1509 1507 1505 1503 1502 1500
1473 1474 1475 1476 1477 1478 1481 1483 1484 1486 1488 1491 1492 1494 1497 1499 1501 1503 1506 1506 1507 1507 1508 1509 1510 1511 1512 1512 1512 1512 1511 1511 1510 1509 1507 1505 1503 1501 1499 1496 1495 1493 1492
1467 1467 1468 1468 1470 1471 1473 1474 1476 1477 1480 1482 1484 1487 1489 1491 1493 1495 1498 1499 1500 1501 1502 1503 1504 1505 1506 1507 1506 1505 1504 1503 1503 1501 1499 1497 1495 1492 1490 1488 1486 1484 1483
1460 1460 1461 1461 1462 1464 1465 1466 1468 1470 1472 1474 1477 1479 1481 1483 1486 1488 1490 1492 1495 1495 1496 1497 1499 1499 1500 1501 1499 1498 1497 1495 1494 1493 1491 1488 1486 1484 1482 1480 1478 1476 1474
1453 1453 1454 1455 1455 1456 1458 1459 1461 1463 1465 1466 1469 1471 1473 1475 1477 1480 1482 1485 1487 1490 1491 1492 1493 1494 1494 1494 1493 1491 1489 1487 1485 1484 1482 1480 1477 1475 1473 1471 1469 1467 1466
1447 1447 1448 1448 1449 1450 1451 1452 1454 1456 1458 1459 1461 1464 1466 1468 1471 1473 1476 1478 1481 1483 1485 1486 1487 1487 1488 1487 1486 1484 1482 1480 1477 1476 1474 1471 1468 1466 1464 1462 1460 1459 1457
1441 1441 1442 1442 1443 1444 1445 1446 1447 1449 1451 1453 1455 1457 1460 1462 1465 1469 1471 1474 1476 1478 1480 1481 1481 1481 1481 1480 1479 1478 1475 1473 1471 1469 1466 1463 1461 1458 1456 1454 1452 1451 1449
1436 1437 1438 1438 1439 1439 1440 1441 1442 1443 1445 1448 1450 1453 1455 1459 1462 1465 1468 1470 1472 1473 1475 1475 1475 1475 1475 1474 1472 1470 1468 1466 1463 1461 1458 1456 1453 1451 1448 1447 1445 1443 1441
1433 1434 1434 1435 1435 1435 1436 1437 1438 1439 1441 1444 1447 1451 1455 1458 1461 1464 1465 1467 1468 1469 1469 1469 1469 1469 1469 1467 1465 1463 1461 1460 1457 1454 1452 1449 1446 1444 1442 1439 1437 1435 1432
1431 1432 1432 1432 1432 1433 1433 1434 1436 1438 1440 1443 1447 1451 1455 1457 1460 1461 1462 1462 1463 1464 1464 1464 1464 1464 1463 1462 1460 1458 1456 1453 1450 1448 1445 1443 1440 1437 1434 1432 1429 1426 1424
1430 1431 1431 1432 1432 1432 1433 1435 1437 1439 1442 1445 1448 1452 1454 1456 1457 1458 1458 1459 1460 1460 1460 1459 1459 1459 1458 1457 1455 1453 1451 1448 1445 1443 1440 1436 1434 1430 1427 1424 1421 1418 1415
1431 1432 1433 1433 1434 1435 1436 1438 1440 1442 1444 1447 1449 1451 1453 1454 1454 1455 1455 1456 1456 1455 1455 1455 1454 1453 1452 1451 1450 1448 1446 1444 1441 1438 1435 1429 1427 1423 1420 1416 1414 1410 1407
1435 1435 1436 1438 1438 1439 1440 1442 1444 1445 1446 1448 1449 1450 1451 1452 1452 1452 1452 1452 1452 1451 1450 1449 1449 1448 1447 1446 1444 1443 1441 1438 1435 1433 1430 1424 1420 1417 1413 1409 1406 1402 1399
1440 1440 1441 1442 1443 1443 1444 1445 1446 1447 1447 1448 1449 1450 1450 1450 1450 1449 1449 1448 1448 1447 1446 1444 1443 1442 1441 1440 1439 1437 1435 1432 1428 1426 1425 1420 1415 1410 1405 1401 1398 1394 1390
1445 1445 1446 1447 1447 1447 1447 1448 1448 1448 1448 1449 1449 1448 1448 1448 1447 1446 1446 1445 1444 1443 1442 1440 1439 1437 1436 1435 1433 1432 1430 1427 1424 1420 1418 1415 1409 1405 1396 1391 1389 1386 1382